DIGOB EGJB-EGLF

Flight info

Callsign DIGOB
Flight time 0h 40m
Altitude 23000
Route ORIST Y110 VEXEN L980 KATHY
Aircraft P180/L-SBDFGM3RWXY/LB1

Departure

Time 2026-04-23 18:38
Airport Guernsey Airport (EGJB)

Arrival

Time 2026-04-23 19:18
Airport Farnborough Airport (EGLF)
Time Latitude Longitude Altitude Speed Heading
2026-04-23 18:19 49.43351 -2.59059 326 ft 0 kts
2026-04-23 18:33 49.43355 -2.59058 323 ft 2 kts
2026-04-23 18:33 49.43385 -2.59067 324 ft 6 kts 308°
2026-04-23 18:33 49.43374 -2.59141 327 ft 6 kts 268°
2026-04-23 18:34 49.43374 -2.59218 328 ft 12 kts 267°
2026-04-23 18:34 49.43367 -2.59420 325 ft 23 kts 268°
2026-04-23 18:34 49.43359 -2.59680 323 ft 26 kts 267°
2026-04-23 18:34 49.43344 -2.59872 316 ft 20 kts 270°
2026-04-23 18:35 49.43339 -2.60083 304 ft 20 kts 268°
2026-04-23 18:35 49.43333 -2.60295 289 ft 19 kts 267°
2026-04-23 18:35 49.43327 -2.60521 287 ft 22 kts 268°
2026-04-23 18:35 49.43343 -2.60743 292 ft 20 kts 280°
2026-04-23 18:36 49.43365 -2.60935 302 ft 17 kts 277°
2026-04-23 18:36 49.43361 -2.61111 306 ft 17 kts 267°
2026-04-23 18:36 49.43364 -2.61269 307 ft 12 kts 303°
2026-04-23 18:36 49.43433 -2.61359 310 ft 14 kts 344°
2026-04-23 18:37 49.43467 -2.61294 309 ft 0 kts 89°
2026-04-23 18:37 49.43476 -2.60960 305 ft 71 kts 87°
2026-04-23 18:37 49.43496 -2.59929 369 ft 112 kts 84°
2026-04-23 18:38 49.43508 -2.58629 657 ft 132 kts 86°
2026-04-23 18:38 49.43528 -2.57160 955 ft 148 kts 86°
2026-04-23 18:38 49.43560 -2.55492 1535 ft 159 kts 89°
2026-04-23 18:38 49.43615 -2.53828 2383 ft 156 kts 90°
2026-04-23 18:39 49.43685 -2.52119 3116 ft 161 kts 90°
2026-04-23 18:39 49.43929 -2.50419 3844 ft 172 kts 69°
2026-04-23 18:39 49.44729 -2.48970 4536 ft 187 kts 43°
2026-04-23 18:39 49.45964 -2.48204 5309 ft 198 kts 18°
2026-04-23 18:40 49.47310 -2.47732 6070 ft 198 kts 20°
2026-04-23 18:40 49.48624 -2.47235 6830 ft 197 kts 20°
2026-04-23 18:40 49.49953 -2.46729 7505 ft 198 kts 20°
2026-04-23 18:40 49.51302 -2.46215 8160 ft 200 kts 20°
2026-04-23 18:41 49.52655 -2.45703 8818 ft 201 kts 20°
2026-04-23 18:41 49.54018 -2.45184 9475 ft 202 kts 20°
2026-04-23 18:41 49.55391 -2.44658 10119 ft 204 kts 19°
2026-04-23 18:41 49.56777 -2.44129 10674 ft 206 kts 20°
2026-04-23 18:42 49.58172 -2.43598 11240 ft 207 kts 20°
2026-04-23 18:42 49.59573 -2.43063 11815 ft 208 kts 19°
2026-04-23 18:42 49.60966 -2.42528 12338 ft 210 kts 18°
2026-04-23 18:42 49.62390 -2.41984 12873 ft 211 kts 19°
2026-04-23 18:43 49.63817 -2.41440 13400 ft 212 kts 19°
2026-04-23 18:43 49.65254 -2.40889 13898 ft 214 kts 19°
2026-04-23 18:43 49.66703 -2.40331 14347 ft 216 kts 18°
2026-04-23 18:43 49.68163 -2.39774 14806 ft 215 kts 18°
2026-04-23 18:44 49.69599 -2.39204 15289 ft 211 kts 22°
2026-04-23 18:44 49.70800 -2.37975 15682 ft 209 kts 48°
2026-04-23 18:44 49.71740 -2.36281 16045 ft 211 kts 50°
2026-04-23 18:44 49.72688 -2.34562 16503 ft 208 kts 50°
2026-04-23 18:45 49.73613 -2.32876 16968 ft 207 kts 50°
2026-04-23 18:45 49.74557 -2.31160 17297 ft 213 kts 49°
2026-04-23 18:45 49.75513 -2.29417 17791 ft 211 kts 49°
2026-04-23 18:45 49.76460 -2.27699 18265 ft 210 kts 48°
2026-04-23 18:46 49.77418 -2.25957 18610 ft 214 kts 48°
2026-04-23 18:46 49.78397 -2.24177 18884 ft 220 kts 50°
2026-04-23 18:46 49.79383 -2.22370 19296 ft 218 kts 49°
2026-04-23 18:46 49.80359 -2.20592 19598 ft 222 kts 49°
2026-04-23 18:47 49.81371 -2.18747 19870 ft 226 kts 48°
2026-04-23 18:47 49.82384 -2.16895 20271 ft 225 kts 47°
2026-04-23 18:47 49.83394 -2.15049 20626 ft 226 kts 47°
2026-04-23 18:47 49.84426 -2.13167 20871 ft 232 kts 47°
2026-04-23 18:48 49.85463 -2.11262 21283 ft 230 kts 45°
2026-04-23 18:48 49.86499 -2.09363 21636 ft 232 kts 45°
2026-04-23 18:48 49.87552 -2.07439 21925 ft 237 kts 46°
2026-04-23 18:48 49.88618 -2.05480 22290 ft 238 kts 45°
2026-04-23 18:49 49.89684 -2.03518 22679 ft 239 kts 45°
2026-04-23 18:49 49.90751 -2.01564 22986 ft 242 kts 45°
2026-04-23 18:49 49.91846 -1.99551 23272 ft 248 kts 44°
2026-04-23 18:49 49.92991 -1.97449 23287 ft 261 kts 45°
2026-04-23 18:50 49.93778 -1.95998 23291 ft 269 kts 45°
2026-04-23 18:50 49.95429 -1.92952 23303 ft 282 kts 45°
2026-04-23 18:50 49.96708 -1.90591 23300 ft 290 kts 45°
2026-04-23 18:50 49.98023 -1.88162 23300 ft 296 kts 45°
2026-04-23 18:51 49.99460 -1.85879 23296 ft 296 kts 32°
2026-04-23 18:51 50.01308 -1.84500 23299 ft 295 kts 15°
2026-04-23 18:51 50.03334 -1.84043 23297 ft 297 kts
2026-04-23 18:51 50.05403 -1.83784 23305 ft 300 kts
2026-04-23 18:52 50.07489 -1.83482 23303 ft 302 kts
2026-04-23 18:52 50.09565 -1.83205 23305 ft 304 kts
2026-04-23 18:52 50.11682 -1.82930 23305 ft 306 kts
2026-04-23 18:52 50.13766 -1.82235 23302 ft 310 kts 21°
2026-04-23 18:53 50.15626 -1.80499 23300 ft 315 kts 35°
2026-04-23 18:53 50.17313 -1.78313 23304 ft 315 kts 37°
2026-04-23 18:53 50.19009 -1.76134 23308 ft 316 kts 37°
2026-04-23 18:53 50.20709 -1.73955 23310 ft 317 kts 38°
2026-04-23 18:54 50.22410 -1.71758 23312 ft 318 kts 38°
2026-04-23 18:54 50.24121 -1.69565 23315 ft 318 kts 38°
2026-04-23 18:54 50.25831 -1.67362 23316 ft 319 kts 38°
2026-04-23 18:54 50.27543 -1.65154 23319 ft 319 kts 38°
2026-04-23 18:55 50.29259 -1.62942 23320 ft 320 kts 37°
2026-04-23 18:55 50.30949 -1.60756 23320 ft 320 kts 38°
2026-04-23 18:55 50.32666 -1.58541 23320 ft 320 kts 38°
2026-04-23 18:55 50.34381 -1.56315 23321 ft 320 kts 38°
2026-04-23 18:56 50.35537 -1.54819 23324 ft 320 kts 38°
2026-04-23 18:56 50.37813 -1.51876 23324 ft 320 kts 38°
2026-04-23 18:56 50.39529 -1.49646 23322 ft 320 kts 38°
2026-04-23 18:56 50.41249 -1.47416 23299 ft 322 kts 38°
2026-04-23 18:57 50.43002 -1.45144 22844 ft 333 kts 40°
2026-04-23 18:57 50.44767 -1.42843 22256 ft 326 kts 40°
2026-04-23 18:57 50.46494 -1.40584 21680 ft 320 kts 41°
2026-04-23 18:57 50.48173 -1.38399 21044 ft 317 kts 41°
2026-04-23 18:58 50.49875 -1.36184 20303 ft 319 kts 43°
2026-04-23 18:58 50.51569 -1.33963 19574 ft 315 kts 43°
2026-04-23 18:58 50.53238 -1.31771 18851 ft 312 kts 43°
2026-04-23 18:58 50.54899 -1.29609 18092 ft 308 kts 43°
2026-04-23 18:59 50.56539 -1.27467 17302 ft 305 kts 43°
2026-04-23 18:59 50.58154 -1.25337 16529 ft 301 kts 43°
2026-04-23 18:59 50.59757 -1.23238 15786 ft 298 kts 43°
2026-04-23 18:59 50.61341 -1.21154 15051 ft 295 kts 43°
2026-04-23 19:00 50.62909 -1.19093 14336 ft 292 kts 43°
2026-04-23 19:00 50.64452 -1.17101 13563 ft 290 kts 40°
2026-04-23 19:00 50.66112 -1.15319 12784 ft 287 kts 37°
2026-04-23 19:00 50.67750 -1.13553 12028 ft 283 kts 39°
2026-04-23 19:01 50.69331 -1.11742 11416 ft 277 kts 39°
2026-04-23 19:01 50.70840 -1.10062 11351 ft 254 kts 38°
2026-04-23 19:01 50.72279 -1.08518 11343 ft 247 kts 38°
2026-04-23 19:01 50.73664 -1.06976 11339 ft 241 kts 39°
2026-04-23 19:02 50.74566 -1.05964 11340 ft 239 kts 39°
2026-04-23 19:02 50.76378 -1.03959 11231 ft 239 kts 39°
2026-04-23 19:02 50.77657 -1.02307 11057 ft 238 kts 53°
2026-04-23 19:02 50.78452 -1.00097 10791 ft 226 kts 68°
2026-04-23 19:03 50.79076 -0.97912 10504 ft 219 kts 67°
2026-04-23 19:03 50.79714 -0.95758 10192 ft 214 kts 68°
2026-04-23 19:03 50.80336 -0.93598 9846 ft 220 kts 68°
2026-04-23 19:03 50.80976 -0.91377 9507 ft 223 kts 68°
2026-04-23 19:04 50.81623 -0.89165 9203 ft 219 kts 67°
2026-04-23 19:04 50.82249 -0.87004 9005 ft 213 kts 68°
2026-04-23 19:04 50.82868 -0.84863 8820 ft 215 kts 68°
2026-04-23 19:04 50.83494 -0.82691 8623 ft 219 kts 68°
2026-04-23 19:05 50.84132 -0.80494 8431 ft 221 kts 68°
2026-04-23 19:05 50.84770 -0.78287 8240 ft 220 kts 66°
2026-04-23 19:05 50.85648 -0.76343 8054 ft 223 kts 47°
2026-04-23 19:05 50.86931 -0.74934 7862 ft 228 kts 30°
2026-04-23 19:06 50.88479 -0.74284 7664 ft 234 kts
2026-04-23 19:06 50.90105 -0.74520 7465 ft 239 kts 348°
2026-04-23 19:06 50.91680 -0.75327 7368 ft 235 kts 346°
2026-04-23 19:06 50.93242 -0.76070 7371 ft 234 kts 348°
2026-04-23 19:07 50.94810 -0.76809 7373 ft 236 kts 347°
2026-04-23 19:07 50.96382 -0.77572 7377 ft 236 kts 347°
2026-04-23 19:07 50.97955 -0.78338 7377 ft 236 kts 347°
2026-04-23 19:07 50.99528 -0.79093 7378 ft 236 kts 347°
2026-04-23 19:08 51.01106 -0.79803 7376 ft 234 kts 354°
2026-04-23 19:08 51.02670 -0.79638 7370 ft 228 kts 15°
2026-04-23 19:08 51.04235 -0.79233 7372 ft 228 kts 11°
2026-04-23 19:08 51.05811 -0.78920 7375 ft 228 kts 12°
2026-04-23 19:09 51.07381 -0.78556 7380 ft 228 kts 13°
2026-04-23 19:09 51.08942 -0.78161 7378 ft 227 kts 15°
2026-04-23 19:09 51.10482 -0.77635 7379 ft 227 kts 15°
2026-04-23 19:09 51.12034 -0.77174 7382 ft 227 kts 14°
2026-04-23 19:10 51.13599 -0.76711 7195 ft 234 kts 15°
2026-04-23 19:10 51.15149 -0.76042 6688 ft 228 kts 21°
2026-04-23 19:10 51.16658 -0.75310 6150 ft 225 kts 21°
2026-04-23 19:10 51.17986 -0.74202 5626 ft 216 kts 45°
2026-04-23 19:11 51.18921 -0.72384 5096 ft 211 kts 59°
2026-04-23 19:11 51.19726 -0.70452 4601 ft 207 kts 59°
2026-04-23 19:11 51.20527 -0.68572 4154 ft 203 kts 59°
2026-04-23 19:11 51.21350 -0.66772 3697 ft 202 kts 47°
2026-04-23 19:12 51.22168 -0.66059 3431 ft 207 kts 18°
2026-04-23 19:12 51.23929 -0.66935 3131 ft 207 kts 316°
2026-04-23 19:12 51.24441 -0.69095 2984 ft 222 kts 271°
2026-04-23 19:12 51.24276 -0.71577 2869 ft 228 kts 261°
2026-04-23 19:13 51.24047 -0.74083 2751 ft 229 kts 261°
2026-04-23 19:13 51.23813 -0.76605 2629 ft 231 kts 261°
2026-04-23 19:13 51.23585 -0.79151 2449 ft 234 kts 261°
2026-04-23 19:13 51.23178 -0.81624 2224 ft 235 kts 244°
2026-04-23 19:14 51.22319 -0.83831 2013 ft 233 kts 230°
2026-04-23 19:14 51.21337 -0.85813 2007 ft 224 kts 230°
2026-04-23 19:14 51.20845 -0.88024 1988 ft 205 kts 275°
2026-04-23 19:14 51.21413 -0.89833 1990 ft 170 kts 330°
2026-04-23 19:15 51.22444 -0.90147 1994 ft 148 kts 19°
2026-04-23 19:15 51.23441 -0.89732 1999 ft 148 kts 25°
2026-04-23 19:15 51.24057 -0.88747 1926 ft 117 kts 81°
2026-04-23 19:15 51.24261 -0.87472 1752 ft 123 kts 62°
2026-04-23 19:16 51.24679 -0.86357 1556 ft 113 kts 65°
2026-04-23 19:16 51.25029 -0.85278 1384 ft 107 kts 63°
2026-04-23 19:16 51.25378 -0.84239 1215 ft 107 kts 64°
2026-04-23 19:17 51.26100 -0.82096 854 ft 111 kts 64°
2026-04-23 19:17 51.26452 -0.81000 685 ft 111 kts 64°
2026-04-23 19:17 51.26817 -0.79923 480 ft 110 kts 65°
2026-04-23 19:17 51.27176 -0.78856 309 ft 107 kts 64°
2026-04-23 19:18 51.27503 -0.77870 226 ft 87 kts 64°
2026-04-23 19:18 51.27686 -0.77314 229 ft 35 kts 62°
2026-04-23 19:18 51.27788 -0.77046 226 ft 22 kts 45°
2026-04-23 19:18 51.27916 -0.76907 227 ft 23 kts 34°
2026-04-23 19:19 51.28069 -0.76851 225 ft 13 kts 287°
2026-04-23 19:19 51.28105 -0.77026 220 ft 20 kts 288°
2026-04-23 19:20 51.28191 -0.77455 214 ft 16 kts 287°
2026-04-23 19:20 51.28230 -0.77592 215 ft 12 kts 330°
2026-04-23 19:20 51.28288 -0.77621 214 ft 5 kts 306°